Location: Johnson City
(36.3130°N, 82.3540°W)
Time: 08:35:56
(UTC-04:00)

OTV 5 (USA 277) - Visible Passes

Search period start: 20 April 2019 00:00
Search period end: 30 April 2019 00:00
Orbit: 310 x 325 km, 54.5° (Epoch: 16 April)

Date Brightness Start Highest point End Pass type
(mag) Time Alt. Az. Time Alt. Az. Time Alt. Az.
20 Apr ? 05:56:04 10° NNW 05:58:27 29° NE 06:00:50 10° ESE visible
21 Apr ? 06:10:35 10° NW 06:13:15 77° SW 06:15:53 10° SE visible
22 Apr ? 04:51:41 10° N 04:53:36 18° NE 04:55:35 10° E visible
22 Apr ? 21:09:24 10° SSW 21:11:52 31° SE 21:12:33 26° E visible
23 Apr ? 05:07:59 44° N 05:08:28 53° NE 05:11:04 10° ESE visible
23 Apr ? 21:23:50 10° SW 21:26:32 67° NW 21:29:14 10° NE visible
24 Apr ? 05:25:10 14° SSE 05:25:10 14° SSE 05:25:38 10° SSE visible
24 Apr ? 21:39:10 10° W 21:41:22 22° NW 21:43:35 10° NNE visible
27 Apr ? 20:49:49 10° WNW 20:51:27 14° NW 20:53:04 10° N visible
